Weather History for Lihue, HI

Change the Weather History Date:

Tuesday, August 14, 2012

  Actual Average Record
Temperature  
Mean Temperature 79 °F 80 °F  
Max Temperature 84 °F 85 °F 87 °F (1957)
Min Temperature 73 °F 75 °F 68 °F (1952)
Degree Days  
Heating Degree Days 0 0  
Month to date heating degree days 0 0  
Since 1 June heating degree days 0 0  
Since 1 July heating degree days 0 0  
Cooling Degree Days 14 15  
Month to date cooling degree days 194 209  
Year to date cooling degree days 2392 2281  
Since 1 June cooling degree days 986 1042  
Growing Degree Days 28 (Base 50)    
Moisture  
Dew Point 69 °F    
Average Humidity 75    
Maximum Humidity 87    
Minimum Humidity 63    
Precipitation  
Precipitation 0.02 in 0.08 in 0.41 in (1955)
Month to date precipitation 0.41 1.04  
Year to date precipitation 34.54 20.36  
Snow  
Snow 0.00 in - - ()
Month to date snowfall 0.0  
Since 1 June snowfall 0.0  
Since 1 July snowfall 0.0  
Snow Depth 0.00 in    
Sea Level Pressure  
Sea Level Pressure 30.08 in    
Wind  
Wind Speed 15 mph (NE)    
Max Wind Speed 28 mph    
Max Gust Speed 31 mph    
Visibility 10 miles    
Events Rain    
T = Trace of Precipitation, MM = Missing Value Source: NWS Daily Summary

Daily Weather History Graph

Daily Weather History Graph

Search for Another Location

Airport:

Trip Planner

Search our weather history database for the weather conditions in past years. The results will help you decide how hot, cold, wet, or windy it might be!

Date:

Astronomy

Aug. 14, 2012 Rise Set
Actual Time 6:14 AM HST 7:08 PM HST
Civil Twilight 5:51 AM HST 7:31 PM HST
Nautical Twilight 5:24 AM HST 7:59 PM HST
Astronomical Twilight 4:56 AM HST 8:27 PM HST
Moon 3:34 AM HST (8/14) 5:03 PM HST (8/14)
Length of Visible Light 13h 40m
Length of Day
12h 53m
Waning Crescent, 8% of the Moon is Illuminated
Aug 14
Waning Crescent
Aug 17
New
Aug 24
First Quarter
Aug 31
Full
Sep 8
Last Quarter

Hourly Weather History & Observations

Time (HST) Temp. Heat Index Dew Point Humidity Pressure Visibility Wind Dir Wind Speed Gust Speed Precip Events Conditions
12:07 AM 77.0 °F - 69.8 °F 78% 30.11 in 10.0 mi ENE 13.8 mph - N/A   Overcast
12:53 AM 77.0 °F - 69.1 °F 76% 30.10 in 10.0 mi ENE 13.8 mph - N/A   Mostly Cloudy
1:53 AM 77.0 °F - 70.0 °F 79% 30.09 in 10.0 mi ENE 12.7 mph - N/A   Overcast
2:03 AM 73.4 °F - 68.0 °F 83% 30.10 in 6.0 mi ENE 17.3 mph 27.6 mph 0.00 in Rain Rain
2:15 AM 73.4 °F - 69.8 °F 88% 30.09 in 9.0 mi NE 11.5 mph - 0.02 in Rain Light Rain
2:53 AM 75.9 °F - 70.0 °F 82% 30.08 in 10.0 mi NE 12.7 mph - 0.02 in   Overcast
3:25 AM 75.2 °F - 71.6 °F 89% 30.08 in 10.0 mi ENE 12.7 mph - N/A   Overcast
3:39 AM 75.2 °F - 71.6 °F 89% 30.08 in 10.0 mi ENE 13.8 mph - N/A   Overcast
3:53 AM 75.9 °F - 70.0 °F 82% 30.07 in 10.0 mi ENE 16.1 mph - N/A   Overcast
4:53 AM 75.9 °F - 69.1 °F 79% 30.07 in 10.0 mi ENE 16.1 mph - N/A   Overcast
5:24 AM 75.2 °F - 69.8 °F 83% 30.08 in 10.0 mi ENE 13.8 mph - N/A   Overcast
5:53 AM 73.9 °F - 70.0 °F 87% 30.08 in 8.0 mi NE 12.7 mph - 0.00 in Rain Light Rain
6:00 AM 75.2 °F - 69.8 °F 83% 30.08 in 10.0 mi ENE 16.1 mph 20.7 mph 0.00 in   Overcast
6:09 AM 75.2 °F - 69.8 °F 83% 30.09 in 10.0 mi ENE 17.3 mph - 0.00 in   Overcast
6:28 AM 75.2 °F - 69.8 °F 83% 30.09 in 10.0 mi ENE 24.2 mph 31.1 mph 0.00 in   Overcast
6:35 AM 73.4 °F - 69.8 °F 88% 30.10 in 2.5 mi ENE 20.7 mph 31.1 mph 0.00 in Rain Light Rain
6:46 AM 73.4 °F - 69.8 °F 88% 30.10 in 8.0 mi ENE 15.0 mph 26.5 mph 0.00 in Rain Light Rain
6:53 AM 73.0 °F - 70.0 °F 90% 30.09 in 9.0 mi NE 16.1 mph - 0.00 in   Overcast
7:02 AM 73.4 °F - 71.6 °F 94% 30.10 in 6.0 mi NE 16.1 mph - N/A   Overcast
7:13 AM 73.4 °F - 71.6 °F 94% 30.10 in 10.0 mi NE 13.8 mph - 0.00 in   Overcast
7:42 AM 73.4 °F - 69.8 °F 88% 30.11 in 10.0 mi ENE 15.0 mph - 0.00 in   Overcast
7:53 AM 75.9 °F - 69.1 °F 79% 30.10 in 10.0 mi ENE 13.8 mph - 0.00 in   Overcast
8:53 AM 79.0 °F - 69.1 °F 72% 30.10 in 10.0 mi NE 13.8 mph - N/A   Partly Cloudy
9:27 AM 80.6 °F 83.9 °F 69.8 °F 70% 30.11 in 10.0 mi NNE 15.0 mph - N/A   Overcast
9:44 AM 80.6 °F 83.9 °F 69.8 °F 70% 30.11 in 10.0 mi NE 17.3 mph - N/A   Mostly Cloudy
9:53 AM 82.0 °F 85.9 °F 70.0 °F 67% 30.10 in 10.0 mi NE 16.1 mph - N/A   Mostly Cloudy
10:53 AM 82.0 °F 85.5 °F 69.1 °F 65% 30.10 in 10.0 mi NE 16.1 mph - 0.00 in   Overcast
11:53 AM 82.9 °F 87.0 °F 70.0 °F 65% 30.09 in 10.0 mi NE 16.1 mph - N/A   Mostly Cloudy
12:53 PM 80.1 °F 82.9 °F 69.1 °F 69% 30.08 in 10.0 mi ENE 21.9 mph - N/A   Mostly Cloudy
1:17 PM 78.8 °F - 66.2 °F 65% 30.08 in 10.0 mi ENE 12.7 mph - N/A   Overcast
1:32 PM 80.6 °F 83.9 °F 69.8 °F 70% 30.08 in 10.0 mi NNE 13.8 mph - N/A   Overcast
1:53 PM 82.0 °F 84.9 °F 68.0 °F 62% 30.06 in 10.0 mi NE 11.5 mph - N/A   Scattered Clouds
2:53 PM 82.9 °F 87.0 °F 70.0 °F 65% 30.04 in 10.0 mi NNE 15.0 mph - N/A   Scattered Clouds
3:39 PM 80.6 °F 83.9 °F 69.8 °F 70% 30.03 in 10.0 mi NE 13.8 mph - N/A   Mostly Cloudy
3:53 PM 81.0 °F 84.1 °F 69.1 °F 67% 30.03 in 10.0 mi NE 13.8 mph - N/A   Mostly Cloudy
4:53 PM 80.1 °F 82.7 °F 68.0 °F 67% 30.02 in 10.0 mi NE 15.0 mph - N/A   Mostly Cloudy
5:53 PM 79.0 °F - 69.1 °F 72% 30.03 in 10.0 mi NE 16.1 mph - N/A   Mostly Cloudy
6:53 PM 77.0 °F - 68.0 °F 74% 30.04 in 10.0 mi NNE 15.0 mph - N/A   Partly Cloudy
7:53 PM 77.0 °F - 69.1 °F 76% 30.05 in 10.0 mi NNE 15.0 mph - N/A   Scattered Clouds
8:53 PM 77.0 °F - 69.1 °F 76% 30.06 in 10.0 mi NE 18.4 mph - N/A   Overcast
9:53 PM 77.0 °F - 69.1 °F 76% 30.08 in 10.0 mi NE 16.1 mph - N/A   Scattered Clouds
10:53 PM 77.0 °F - 69.1 °F 76% 30.09 in 10.0 mi NE 18.4 mph - N/A   Overcast
11:53 PM 77.0 °F - 69.1 °F 76% 30.08 in 7.0 mi NE 15.0 mph - 0.00 in Rain Rain